#timestamp,LO_Frequency,Hit,StdDev 
1552273215.5,286047001.3,N
1552273235.3,286047002.7,N
1552273255.2,286047002.0,N
1552273275.0,286047002.5,N
1552273275.9,286047002.5,N
1552273295.8,286047000.3,N
1552273315.6,286046999.8,N
1552273335.4,286047002.7,N
1552273355.3,286047000.0,N
1552273375.1,286047000.5,N
1552273395.8,286047000.8,N
1552273415.7,286047000.0,N
1552273435.5,286047002.8,N
1552273455.4,286047000.3,N
1552273475.2,286047001.0,N
1552273495.0,286046999.4,N
1552273495.9,286046999.4,N
1552273515.8,286046995.3,N
1552273535.6,286046995.8,N
1552273555.5,286046995.4,N
1552273575.3,286046995.2,N
1552273595.1,286046996.7,N
1552273615.9,286046997.1,N
1552273635.7,286046998.5,N
1552273655.5,286047000.4,N
1552273675.4,286047000.2,N
1552273695.2,286047001.2,N
1552273715.1,286047000.5,N
1552273716.0,286047000.5,N
1552273735.8,286046998.1,N
1552273755.6,286047000.6,N
1552273775.5,286046999.9,N
1552273795.3,286047003.9,N
1552273815.1,286047005.1,N
1552273835.9,286047003.5,N
1552273855.7,286047002.1,N
1552273875.6,286047002.3,N
1552273895.4,286047003.9,N
1552273915.2,286047004.1,N
1552273935.1,286047001.6,N
1552273936.0,286047001.6,N
1552273955.8,286046999.8,N
1552273975.7,286047001.7,N
1552273995.5,286047001.5,N
1552274015.3,286047003.3,N
1552274035.2,286047002.0,N
1552274055.0,286047003.1,N
1552274055.9,286047003.1,N
1552274075.8,286047005.2,N
1552274095.6,286047004.6,N
1552274115.4,286047005.8,N
1552274135.3,286047003.3,N
1552274155.1,286047004.2,N
1552274175.8,286047003.4,N
1552274195.7,286047003.0,N
1552274215.5,286047005.3,N
1552274235.4,286047004.9,N
1552274255.2,286047004.8,N
1552274275.0,286047004.9,N
1552274275.9,286047004.9,N
1552274295.8,286047004.9,Y
1552274315.6,286047001.5,P
1552274335.5,286047004.2,P
1552274355.3,286047002.0,N
1552274375.1,286047000.5,N
1552274395.9,286047002.7,N
1552274415.7,286047002.6,N
1552274435.5,286047002.3,N
1552274455.4,286047001.8,N
1552274475.2,286047001.9,N
1552274495.1,286047003.5,Y
1552274496.0,286047003.5,P
1552274515.8,286047004.0,P
1552274535.6,286047001.7,N
1552274555.5,286047003.7,Y
1552274575.3,286047001.0,P
1552274595.2,286047000.7,N
1552274615.9,286046998.4,N
1552274635.7,286046998.1,N
1552274655.6,286046999.4,N
1552274675.4,286046998.5,N
1552274695.2,286046999.0,N
1552274715.1,286046998.8,N
1552274716.0,286046998.8,N
1552274735.8,286046999.4,N
1552274755.7,286046998.6,N
1552274775.5,286047001.2,N
1552274795.3,286047000.7,N
1552274815.2,286047000.7,N
1552274835.0,286047000.5,N
1552274835.9,286047000.5,N
1552274855.7,286047000.6,N
1552274875.6,286046998.6,N
1552274895.4,286047000.9,N
1552274915.3,286047000.7,N
1552274935.1,286046998.7,N
1552274955.8,286047002.6,N
1552274975.7,286046999.8,N
1552274995.5,286047002.3,N
1552275015.4,286047002.3,N
1552275035.2,286047004.0,N
1552275055.0,286047000.5,N
1552275055.9,286047000.5,N
1552275075.8,286047000.9,N
1552275095.6,286047000.8,N
1552275115.4,286047001.4,N
1552275135.3,286047004.8,Y
1552275155.1,286047011.9,P
1552275175.9,286047003.9,N
1552275195.7,286047001.8,N
1552275215.5,286047001.9,N
1552275235.4,286047002.6,N
1552275255.2,286047002.9,N
1552275275.0,286047004.0,N
1552275276.0,286047004.0,N
1552275295.8,286047003.5,N
1552275315.6,286047001.5,N
1552275335.5,286047000.3,N
1552275355.3,286047000.2,N
1552275375.1,286047000.9,N
1552275395.9,286047000.8,N
1552275415.7,286047000.5,N
1552275435.6,286047002.4,N
1552275455.4,286047002.5,N
1552275475.2,286046999.9,N
1552275495.1,286047002.7,N
1552275496.0,286047002.7,N
1552275515.8,286047000.8,N
1552275535.6,286047000.1,N
1552275555.5,286047004.3,N
1552275575.3,286047004.3,N
1552275595.2,286047002.1,N
1552275615.9,286047002.6,N
1552275635.7,286047000.0,N
1552275655.6,286046998.1,N
1552275675.4,286047000.4,N
1552275695.3,286047002.7,N
1552275715.1,286047001.2,N
1552275716.0,286047001.2,N
1552275735.8,286046998.5,N
1552275755.7,286047001.2,N
1552275775.5,286047000.7,N
1552275795.3,286046998.5,N
1552275815.2,286046998.1,N
1552275835.0,286047000.9,N
1552275835.9,286047000.9,N
1552275855.8,286047001.2,N
1552275875.6,286047004.0,N
1552275895.4,286047001.5,N
1552275915.3,286047002.8,N
1552275935.1,286047000.5,N
1552275955.9,286047002.6,N
1552275975.7,286047002.2,N
1552275995.5,286047004.2,N
1552276015.4,286047001.5,N
1552276035.2,286047002.5,N
1552276055.0,286047002.5,N
1552276055.9,286047002.5,N
1552276075.8,286047002.7,N
1552276095.6,286046999.7,N
1552276115.5,286047000.3,N
1552276135.3,286046999.8,N
1552276155.1,286047000.9,N
1552276175.9,286046998.4,N
1552276195.7,286046998.0,N
1552276215.5,286046995.7,N
1552276235.4,286046995.4,N
1552276255.2,286046998.0,N
1552276275.1,286046997.4,N
1552276276.0,286046997.4,N
1552276295.8,286046996.9,N
1552276315.6,286046995.9,N
1552276335.5,286046992.2,Y
1552276355.3,286046991.9,P
1552276375.2,286046991.7,N
1552276395.9,286046993.6,N
1552276415.7,286046994.1,N
1552276435.6,286046991.7,N
1552276455.4,286046993.9,N
1552276475.2,286046993.7,N
1552276495.1,286046995.8,N
1552276496.0,286046995.8,N
1552276515.8,286046996.0,N
1552276535.7,286046995.0,N
1552276555.5,286046995.6,N
1552276575.3,286046995.5,N
1552276595.2,286046995.7,N
1552276615.0,286046999.6,N
1552276615.9,286046999.6,N
1552276635.7,286046997.5,N
1552276655.6,286046996.8,N
1552276675.4,286046999.2,N
1552276695.3,286046999.1,N
1552276715.1,286046996.9,N
1552276716.0,286046996.9,N
1552276735.8,286046996.7,N
1552276755.7,286046996.8,N
1552276775.5,286046999.3,N
1552276795.4,286046999.3,N
